[[{"header":{"parameterUnit":"m.s-1","parameterCategory":1,"la1":30.2991,"la2":30.254,"lo1":-89.0895,"lo2":-89.0444,"dy":0.0017,"dx":0.0017,"nx":28,"ny":28,"refTime":"2026-01-01T09:00:00:Z","depth":0,"parameterNumber":2,"parameterNumberName":"U-component_of_WINDS"},"data":[0,0,0,0,0,0,0,0,0,0,0,0,0,0,0,0,0,0,0,0,0,0,0,0,0,0,0,0,0,0,0,0,0,0,0,0,0,0,0,0,0,0,0,0,0,0,0,0,0,0,0,0,0,0,0,0,0,0,2.8645,2.8647,0,2.8825,2.8827,2.8829,2.8828,2.8826,2.8823,2.8821,2.9012,2.9019,2.9026,0,0,0,0,0,0,0,0,0,0,0,0,0,2.8311,2.8317,2.8645,2.8648,2.865,2.8824,2.8827,2.8829,2.8829,2.8826,2.8823,2.882,2.9009,2.9018,2.9027,0,0,0,0,0,0,0,0,0,0,0,0,0,2.847,2.8319,2.8645,2.867,2.8674,2.8824,2.8827,2.883,2.8829,2.8826,2.8822,2.8819,2.9006,2.9017,2.9028,2.9166,0,0,2.9061,2.9066,0,0,0,0,0,0,0,0,2.8461,2.8482,2.8664,2.8669,2.8674,2.88,2.8779,2.8943,2.883,2.8771,2.8821,2.8817,2.8945,2.896,2.9002,2.9175,2.9183,2.9062,2.9069,2.9073,2.9076,0,0,0,0,0,0,0,2.845,2.8474,2.8716,2.8667,2.8673,2.8676,2.8694,2.881,2.8876,2.8775,2.8776,2.8797,2.8947,2.8991,2.9007,2.9186,2.9062,2.9071,2.9078,2.9082,2.9486,2.949,0,0,0,0,0,0,2.8432,2.8465,2.8711,2.8722,2.8556,2.8684,2.8705,2.8763,2.8874,2.8888,2.88,2.8796,2.8975,2.8994,2.9013,2.9185,2.9073,2.9084,2.909,2.9482,2.9487,2.9491,0,0,0,0,0,0,2.8425,2.8454,2.8704,2.8594,2.8626,2.8694,2.8759,2.8769,2.8814,2.8892,2.8905,2.8833,2.8973,2.8998,2.9128,2.9191,2.9088,2.9098,2.9477,2.9483,2.9489,2.9528,0,0,0,0,0,0,2.8416,2.8452,2.8503,2.8595,2.8631,2.8813,2.8763,2.8775,2.8832,2.8829,2.8927,2.894,2.8972,2.9112,2.9139,2.9205,2.9107,2.9471,2.948,2.9487,2.9521,2.9535,2.9546,0,0,0,0,0,2.8404,2.8507,2.8505,2.8535,2.8696,2.8817,2.8838,2.8871,2.8836,2.889,2.8941,2.8937,2.918,2.9126,2.9156,2.9226,2.9468,2.9477,2.9486,2.9516,2.9532,2.9546,0,0,0,0,0,0,2.8422,2.852,2.8518,2.8654,2.8727,2.8816,2.8884,2.8886,2.8972,2.8966,2.9005,2.9027,2.9158,2.9205,2.9143,2.9367,2.932,2.9336,2.9332,2.9348,2.936,2.9347,2.9116,0,0,0,0,0,2.8442,2.8529,2.861,2.8723,2.8759,2.8816,2.8869,2.8888,2.8966,2.8998,2.9058,2.9136,2.923,2.9292,2.9382,2.9528,2.9551,2.9591,2.9603,2.9613,2.9627,2.9711,2.973,2.9522,2.9522,2.9522,0,0,2.8484,2.8548,2.8601,2.8728,2.8787,2.8879,2.8842,2.894,2.901,2.9013,2.914,2.9188,2.9278,2.9417,2.9481,2.946,2.969,2.9625,2.9632,2.9641,2.9723,2.9742,2.976,2.9528,2.9527,2.9526,0,0,2.8608,2.8664,2.8765,2.8824,2.8913,2.8951,2.8975,2.9065,2.9096,2.9224,2.9229,2.9314,2.9474,2.9539,2.9593,2.9745,2.9745,2.9774,2.9839,2.992,2.9937,2.9951,3.0008,3.0028,2.9787,2.9787,2.9787,0,2.8649,2.8786,2.8817,2.8917,2.8974,2.898,2.9084,2.9141,2.9256,2.9297,2.9271,2.9475,2.9535,2.9691,2.9729,2.9771,2.9803,2.9763,2.9931,2.9946,2.9961,3.0015,3.0036,2.979,2.979,2.9789,2.9789,0,2.8835,2.893,2.9001,2.9111,2.9176,2.9278,2.9327,2.939,2.9404,2.9445,2.9578,2.9651,2.9758,2.9796,2.9811,2.9956,2.994,2.9922,2.9876,2.9983,3.0035,3.0056,2.9794,2.9793,2.9792,2.9792,0,0,2.8974,2.91,2.9126,2.9178,2.9277,2.9353,2.9457,2.956,2.9615,2.9695,2.9785,2.9922,2.9907,2.9968,2.9991,3.0062,3.0181,3.0036,3.0038,3.0062,3.0348,3.0362,3.0385,3.0181,3.0185,3.0188,3.0341,0,2.911,2.9292,2.9324,2.9484,2.9574,2.9582,2.9673,2.9746,2.9788,2.9874,2.9921,3.0018,2.9989,3.0027,3.0097,3.0151,3.0239,3.014,3.0268,3.0273,3.0247,3.0412,3.0427,3.0567,3.0362,3.0365,3.0368,0,2.9293,2.9376,2.9545,2.9635,2.9675,2.9755,2.9854,2.9934,3.0019,3.0045,3.0114,3.0129,3.0241,3.0189,3.0345,3.0277,3.0332,3.0367,3.0373,3.0387,3.0327,3.0433,3.0613,3.0635,3.04,3.0397,3.0395,0,2.9381,2.9536,2.9657,2.97,2.9808,2.9865,2.9913,2.9994,3.0055,3.0142,3.0183,3.0283,3.0338,3.0416,3.046,3.0417,3.0614,3.0564,3.0641,3.064,3.0683,3.068,3.0876,3.0715,3.0715,3.0715,3.0714,0,2.953,2.9633,2.9698,2.9773,2.9891,2.9928,3.0045,3.0092,3.0164,3.0251,3.0265,3.0346,3.0397,3.0488,3.0523,3.0648,3.0673,3.0699,3.0708,3.0699,3.0696,3.0736,3.0728,3.072,3.0719,3.0718,3.0717,0,2.9648,2.9695,2.9829,2.992,2.9945,3.0028,3.0108,3.0183,3.0225,3.0335,3.0364,3.0431,3.0538,3.0589,3.0722,3.0745,3.0889,3.089,3.086,3.0863,3.0938,3.0931,3.1168,3.1202,3.1017,3.1019,3.102,0,2.974,2.982,2.992,2.9979,3.0028,3.0121,3.0184,3.0225,3.029,3.0394,3.0457,3.0564,3.0652,3.0824,3.0887,3.0989,3.0994,3.107,3.101,3.1,3.0998,3.0993,3.1003,3.1081,3.1083,3.1085,3.1086,0,2.9901,2.9921,3.0009,3.0107,3.018,3.026,3.0338,3.0385,3.044,3.0513,3.0621,3.069,3.0826,3.0933,3.1041,3.1094,3.1101,3.1104,3.1128,3.1121,3.1101,3.1115,3.0891,3.1099,3.1098,3.1097,3.1096,3.1095,3.0011,3.0083,3.0165,3.0264,3.0327,3.04,3.0476,3.0528,3.0619,3.0731,3.0751,3.0868,3.0954,3.1099,3.1155,3.1249,3.1232,3.1266,3.1274,3.1283,3.1288,3.1084,3.1269,3.1269,3.1268,3.1268,3.1268,0,3.0174,3.0227,3.0318,3.0426,3.0505,3.0502,3.059,3.0657,3.0758,3.0837,3.0923,3.1051,3.1156,3.1227,3.1335,3.1396,3.1403,3.1423,3.142,3.1433,3.1296,3.1266,3.1417,3.1417,3.1417,3.1417,3.1417,3.1417,3.0268,3.0391,3.0421,3.0577,3.0631,3.0744,3.0795,3.0864,3.0927,3.1067,3.1154,3.1199,3.1277,3.139,3.1488,3.1506,3.1546,3.1568,3.1587,3.1458,3.1442,3.1427,3.1399,3.1576,3.1576,3.1716,3.1717,3.1718]},{"header":{"parameterUnit":"m.s-1","parameterCategory":1,"la1":30.2991,"la2":30.254,"lo1":-89.0895,"lo2":-89.0444,"dy":0.0017,"dx":0.0017,"nx":28,"ny":28,"refTime":"2026-01-01T09:00:00:Z","depth":0,"parameterNumber":3,"parameterNumberName":"V-component_of_WINDS"},"data":[0,0,0,0,0,0,0,0,0,0,0,0,0,0,0,0,0,0,0,0,0,0,0,0,0,0,0,0,0,0,0,0,0,0,0,0,0,0,0,0,0,0,0,0,0,0,0,0,0,0,0,0,0,0,0,0,0,0,4.6728,4.673,0,4.6907,4.6909,4.6911,4.6925,4.6923,4.6921,4.692,4.7104,4.7111,4.7117,0,0,0,0,0,0,0,0,0,0,0,0,0,4.6403,4.6409,4.6728,4.673,4.6733,4.6906,4.6909,4.6911,4.6926,4.6923,4.6921,4.6919,4.7102,4.711,4.7118,0,0,0,0,0,0,0,0,0,0,0,0,0,4.6559,4.6411,4.6728,4.6761,4.6765,4.6906,4.6909,4.6912,4.6926,4.6923,4.692,4.6918,4.7099,4.7109,4.7119,4.7239,0,0,4.715,4.7154,0,0,0,0,0,0,0,0,4.655,4.6571,4.6754,4.6759,4.6764,4.6891,4.6862,4.7022,4.6927,4.6865,4.6919,4.6916,4.7036,4.7051,4.7091,4.7248,4.7256,4.7151,4.7157,4.7161,4.7164,0,0,0,0,0,0,0,4.6539,4.6563,4.6799,4.6756,4.6763,4.6768,4.6786,4.6892,4.6965,4.687,4.6872,4.6893,4.7038,4.7081,4.7095,4.7258,4.715,4.7159,4.7166,4.7169,4.7527,4.7531,0,0,0,0,0,0,4.6522,4.6554,4.6793,4.6804,4.6648,4.6776,4.6797,4.6853,4.6963,4.6977,4.6895,4.6893,4.7065,4.7083,4.7102,4.7253,4.7161,4.717,4.7176,4.7524,4.7528,4.7532,0,0,0,0,0,0,4.6515,4.6543,4.6786,4.668,4.6711,4.6784,4.6847,4.6858,4.6901,4.6982,4.6995,4.6925,4.7063,4.7087,4.7206,4.7259,4.7175,4.7184,4.752,4.7525,4.753,4.7554,0,0,0,0,0,0,4.6505,4.654,4.6586,4.6681,4.6717,4.6886,4.685,4.6864,4.6918,4.6917,4.7014,4.7027,4.7063,4.7191,4.7216,4.7272,4.7192,4.7515,4.7522,4.7528,4.7549,4.756,4.7569,0,0,0,0,0,4.6494,4.6585,4.6588,4.6617,4.6775,4.6889,4.691,4.6949,4.6922,4.697,4.7022,4.7024,4.7249,4.7202,4.7231,4.7291,4.7512,4.752,4.7528,4.7545,4.7558,4.7568,0,0,0,0,0,0,4.6495,4.6598,4.6603,4.6727,4.6799,4.6891,4.6952,4.696,4.7042,4.7037,4.7082,4.7104,4.7222,4.7268,4.7214,4.7415,4.7378,4.7392,4.7381,4.7394,4.7403,4.7391,4.72,0,0,0,0,0,4.651,4.6593,4.6679,4.6781,4.6817,4.6878,4.6929,4.6953,4.703,4.706,4.7121,4.7196,4.7284,4.7341,4.7426,4.7555,4.7578,4.761,4.762,4.7628,4.764,4.7715,4.7732,4.7558,4.7557,4.7557,0,0,4.6542,4.6608,4.6658,4.6783,4.6841,4.6928,4.6904,4.6996,4.7061,4.7074,4.7191,4.7238,4.7325,4.745,4.7508,4.7492,4.7693,4.7638,4.7643,4.7652,4.7725,4.7742,4.7756,4.7563,4.7562,4.7561,0,0,4.6644,4.6701,4.6795,4.6854,4.6943,4.6984,4.7006,4.7097,4.7129,4.7246,4.7259,4.7338,4.7487,4.755,4.7601,4.7729,4.7736,4.7755,4.7808,4.7881,4.7894,4.7907,4.7956,4.7973,4.7767,4.7767,4.7767,0,4.6673,4.6803,4.6841,4.6934,4.699,4.7005,4.7101,4.7157,4.727,4.7309,4.7288,4.7478,4.7537,4.7679,4.7711,4.775,4.7779,4.7746,4.7889,4.7902,4.7914,4.7962,4.798,4.7769,4.7769,4.7768,4.7768,0,4.6836,4.6926,4.6991,4.71,4.7162,4.7256,4.731,4.7369,4.7387,4.743,4.7551,4.7622,4.7724,4.7758,4.7776,4.7904,4.7892,4.7879,4.7844,4.7932,4.7978,4.7996,4.7772,4.7771,4.777,4.777,0,0,4.6946,4.7075,4.7099,4.715,4.725,4.7321,4.7416,4.7515,4.7567,4.7643,4.7726,4.7853,4.7844,4.7902,4.7927,4.7991,4.8092,4.7972,4.7974,4.7995,4.8241,4.8252,4.8272,4.8096,4.8099,4.8102,4.8235,0,4.7063,4.7233,4.727,4.7417,4.7503,4.7519,4.7603,4.7674,4.7717,4.7797,4.7844,4.7935,4.7913,4.7949,4.8013,4.8066,4.8143,4.8057,4.8177,4.818,4.8158,4.8296,4.8307,4.8429,4.8253,4.8256,4.8258,0,4.7222,4.7304,4.746,4.7551,4.7588,4.7663,4.7758,4.7833,4.7915,4.7942,4.8008,4.8027,4.8129,4.8086,4.8229,4.817,4.822,4.8254,4.826,4.8276,4.8227,4.8319,4.8469,4.8489,4.8286,4.8284,4.8282,0,4.7291,4.744,4.7553,4.7596,4.7704,4.7757,4.7804,4.7883,4.7941,4.8024,4.8063,4.8156,4.8209,4.8282,4.8327,4.8291,4.8467,4.8427,4.8495,4.8494,4.8534,4.8532,4.8699,4.8561,4.8561,4.856,4.856,0,4.742,4.7516,4.7587,4.7657,4.7765,4.7807,4.7914,4.7961,4.8032,4.8113,4.8131,4.8207,4.826,4.8344,4.838,4.8495,4.8517,4.8544,4.8553,4.8544,4.8542,4.8581,4.8575,4.8565,4.8564,4.8563,4.8562,0,4.7517,4.7568,4.7693,4.7786,4.7811,4.7888,4.7967,4.8037,4.808,4.8183,4.8209,4.8277,4.8377,4.8429,4.8553,4.8577,4.8708,4.8709,4.868,4.8685,4.8751,4.8746,4.8952,4.8983,4.8821,4.8822,4.8824,0,4.7598,4.7672,4.7773,4.7829,4.7878,4.7966,4.8026,4.807,4.8132,4.8232,4.8291,4.8391,4.8474,4.8633,4.8695,4.8791,4.8798,4.8864,4.8813,4.8803,4.8804,4.88,4.881,4.8874,4.8875,4.8876,4.8877,0,4.7737,4.7759,4.7844,4.7939,4.8009,4.8086,4.8162,4.8206,4.8263,4.8332,4.8434,4.8499,4.8626,4.8727,4.8828,4.8879,4.889,4.8893,4.8914,4.8908,4.889,4.8905,4.8709,4.8889,4.8887,4.8887,4.8886,4.8886,4.7831,4.79,4.7982,4.8077,4.8138,4.8209,4.828,4.8332,4.8418,4.8526,4.8546,4.8656,4.8738,4.8875,4.8928,4.9016,4.9002,4.9032,4.9041,4.9048,4.9054,4.8873,4.9034,4.9033,4.9033,4.9033,4.9033,0,4.7975,4.8029,4.8115,4.8221,4.8297,4.8298,4.8382,4.8446,4.8542,4.8617,4.8699,4.8818,4.8916,4.8986,4.9086,4.9143,4.9151,4.9169,4.9167,4.9179,4.9058,4.9031,4.9161,4.9161,4.9161,4.9161,4.9161,4.9161,4.8059,4.8175,4.8207,4.8355,4.8408,4.8516,4.8564,4.863,4.8691,4.8823,4.8905,4.8949,4.9024,4.913,4.9221,4.9239,4.9277,4.9296,4.9314,4.9201,4.9187,4.9174,4.915,4.9302,4.9303,4.9429,4.943,4.9431]}]]